Hourly Data Report for August 03, 2004

SHERBROOKE A
QUEBEC

45°26'00.000" N
71°41'00.000" W
241.40 m
7028124
71610
YSC

Download Data

Hourly Data (August 2004)
Hourly Data Report for August 3, 2004
TIME
LST
Temp Definition
°C
Dew Point Definition
°C
Rel Hum Definition
%
Precip. Amount Definition
mm

Wind Dir Definition
10's deg

Wind Spd Definition
km/h
Visibility Definition
km
Stn Press Definition
kPa
Hmdx Definition


Wind Chill Definition


Weather Definition


00:00 15.0 14.2 95     0 6.4 98.33      
01:00 14.7 13.8 94   12 4 11.3 98.30      
02:00 14.2 13.8 97     0 3.2 98.27      
03:00 15.2 14.3 94   12 4 15.0 98.21      
04:00 14.2 13.5 96   11 4 6.4 98.19      
05:00 13.9 13.1 95     0 15.0 98.20      
06:00 16.4 15.4 94     0 12.9 98.21      
07:00 18.7 16.4 86     0 24.1 98.21     Mostly Cloudy
08:00 20.0 17.0 83     0 24.1 98.20 25   Cloudy
09:00 21.9 17.4 76   22 7 24.1 98.18 27   Cloudy
10:00 21.9 17.1 74   24 11 24.1 98.16 27   Cloudy
11:00 22.2 17.4 74   23 9 24.1 98.12 28   Cloudy
12:00 21.5 18.0 80   23 7 19.3 98.07 28   Rain Showers
13:00 20.0 18.5 91   22 7 19.3 98.08 26   Rain Showers
14:00 21.0 19.2 89   24 9 19.3 98.09 28   Mostly Cloudy
15:00 21.2 18.3 84   21 13 19.3 98.03 27   Cloudy
16:00 21.9 18.2 80   28 11 19.3 98.00 28   Mostly Cloudy
17:00 20.6 17.2 81   27 9 15.0 98.01 26    
18:00 20.0 16.9 82   25 4 15.0 97.97 25   Rain
19:00 19.2 17.2 88   18 4 15.0 98.02      
20:00 18.9 17.0 89   25 4 15.0 98.06      
21:00 17.7 16.7 94   26 4 15.0 98.03      
22:00 17.6 16.7 94   28 4 9.7 98.02      
23:00 17.9 16.8 93     0 11.3 97.97      

Notes on Data Quality.

Legend

  • E = Estimated
  • M = Missing
  • NA = Not Available*
  • [empty] = Indicates an unobserved value
Date modified: